Location: Drebach
(50.6670°N, 13.0330°E)
Time: 05:36:17
(UTC+01:00)

ISS - Pass Details

Date: 26 January 2021
Orbit: 417 x 422 km, 51.6° (Epoch: 08 March)

Event Time Altitude Azimuth Distance (km) Brightness Sun altitude
Rises 18:46:51 0° 268° (W) 2,371 1.8 -18.3°
Reaches altitude 10° 18:48:58 10° 270° (W) 1,508 0.3 -18.7°
Maximum altitude 18:52:21 74° 355° (N) 444 -3.8 -19.2°
Enters shadow 18:52:35 69° 37° (NE) 455 -3.8 -19.2°
